This is the latest recevied weather packets stored in our database for station/object N4UUJ-1. If no packets are shown the sender has not sent any weather packets the latest 1 day(s).
| Time | Temp. | Humidity | Pressure | Rain* | Wind** | Luminosity | Snow |
|---|---|---|---|---|---|---|---|
| 1778242682 | 5° C | 75% | 1019.6 hPa | 0 mm | - | - | - |
| 1778237279 | 2.78° C | 75% | 1018.6 hPa | 0 mm | - | - | - |
| 1778235478 | 2.78° C | 75% | 1018.3 hPa | 0 mm | - | - | - |
| 1778231876 | 3.89° C | 75% | 1018.1 hPa | 0 mm | - | - | - |
| 1778230075 | 4.44° C | 75% | 1017.9 hPa | 0 mm | - | - | - |
| 1778228274 | 4.44° C | 75% | 1018 hPa | 0 mm | - | - | - |
| 1778226473 | 4.44° C | 75% | 1018.1 hPa | 0 mm | - | - | - |
| 1778224672 | 5° C | 75% | 1018 hPa | 0 mm | - | - | - |
| 1778222871 | 5° C | 75% | 1018.1 hPa | 0 mm | - | - | - |
| 1778221070 | 5.56° C | 75% | 1018.3 hPa | 0 mm | - | - | - |
| 1778219269 | 6.11° C | 75% | 1018.3 hPa | 0 mm | - | - | - |
| 1778217468 | 6.11° C | 75% | 1018.3 hPa | 0 mm | - | - | - |
| 1778215667 | 6.67° C | 75% | 1018.2 hPa | 0 mm | - | - | - |
| 1778213866 | 7.22° C | 75% | 1018 hPa | 0 mm | - | - | - |
| 1778212065 | 7.78° C | 75% | 1018.2 hPa | 0 mm | - | - | - |
| 1778210264 | 7.78° C | 75% | 1018.2 hPa | 0 mm | - | - | - |
| 1778208463 | 7.78° C | 75% | 1017.9 hPa | 0 mm | - | - | - |
| 1778206662 | 8.89° C | 75% | 1017.9 hPa | 0 mm | - | - | - |
| 1778204861 | 9.44° C | 75% | 1017.7 hPa | 0 mm | - | - | - |
| 1778203060 | 9.44° C | 75% | 1017.6 hPa | 0 mm | - | - | - |
| 1778201259 | 11.67° C | 75% | 1017 hPa | 0 mm | - | - | - |
| 1778199458 | 13.33° C | 75% | 1017 hPa | 0 mm | - | - | - |
| 1778190453 | 16.11° C | 75% | 1016.5 hPa | 0 mm | - | - | - |
| 1778185050 | 18.33° C | 75% | 1015.9 hPa | 0 mm | - | - | - |
| 1778181448 | 17.22° C | 75% | 1016.1 hPa | 0 mm | - | - | - |
* Rain latest hour (hover to see other rain measurements)
** Current wind speed in m/s (hover to see current wind gust speed)